Weather History for KEYW - September, 2012

Change the Weather History Date:

Sunday, September 2, 2012

  Actual Average Record
Temperature  
Mean Temperature 83 °F 84 °F  
Max Temperature 88 °F 89 °F 95 °F (1956)
Min Temperature 78 °F 79 °F 69 °F (1898)
Degree Days  
Heating Degree Days 0 0  
Month to date heating degree days 0 0  
Since 1 July heating degree days 0 0  
Cooling Degree Days 18 19  
Month to date cooling degree days 35 38  
Year to date cooling degree days 3361 3227  
Growing Degree Days 33 (Base 50)    
Moisture  
Dew Point 74 °F    
Average Humidity 74    
Maximum Humidity 85    
Minimum Humidity 63    
Precipitation  
Precipitation 0.00 in 0.21 in 1.99 in (1894)
Month to date precipitation 0.18 0.43  
Year to date precipitation 37.53 24.10  
Snow  
Snow 0.00 in - - ()
Month to date snowfall 0.0  
Since 1 July snowfall 0.0  
Since 1 September snowfall 0.0  
Snow Depth 0.00 in    
Sea Level Pressure  
Sea Level Pressure 30.01 in    
Wind  
Wind Speed 5 mph (ENE)    
Max Wind Speed 13 mph    
Max Gust Speed 16 mph    
Visibility 10 miles    
Events      
T = Trace of Precipitation, MM = Missing Value Source: NWS Daily Summary

Daily Weather History Graph

Daily Weather History Graph

Search for Another Location

Airport or City:

Trip Planner

Search our weather history database for the weather conditions in past years. The results will help you decide how hot, cold, wet, or windy it might be!

Date:

Astronomy

Sep. 02, 2012 Rise Set
Actual Time 7:08 AM EDT 7:43 PM EDT
Civil Twilight 6:45 AM EDT 8:06 PM EDT
Nautical Twilight 6:18 AM EDT 8:33 PM EDT
Astronomical Twilight 5:51 AM EDT 9:01 PM EDT
Moon 8:54 PM EDT (9/2) 8:55 AM EDT (9/2)
Length of Visible Light 13h 21m
Length of Day
12h 35m
Waning Gibbous, 95% of the Moon is Illuminated
Sep 2
Waning Gibbous
Sep 8
Last Quarter
Sep 15
New
Sep 22
First Quarter
Sep 29
Full

Hourly Weather History & Observations

Time (EDT) Temp. Heat Index Dew Point Humidity Pressure Visibility Wind Dir Wind Speed Gust Speed Precip Events Conditions
12:53 AM 79.0 °F - 73.9 °F 84% 30.05 in 10.0 mi Calm Calm - N/A   Mostly Cloudy
1:53 AM 79.0 °F - 73.0 °F 82% 30.03 in 10.0 mi ENE 3.5 mph - N/A   Partly Cloudy
2:53 AM 80.1 °F 85.4 °F 75.9 °F 87% 30.01 in 10.0 mi NE 3.5 mph - N/A   Clear
3:53 AM 80.1 °F 85.4 °F 75.9 °F 87% 30.01 in 10.0 mi NE 3.5 mph - N/A   Clear
4:53 AM 80.1 °F 85.4 °F 75.9 °F 87% 30.00 in 10.0 mi NE 4.6 mph - N/A   Clear
5:53 AM 80.1 °F 85.1 °F 75.0 °F 85% 30.01 in 10.0 mi NE 6.9 mph - N/A   Clear
6:53 AM 80.1 °F 85.1 °F 75.0 °F 85% 30.02 in 10.0 mi NNE 8.1 mph - N/A   Clear
7:53 AM 81.0 °F 86.7 °F 75.0 °F 82% 30.03 in 10.0 mi NE 6.9 mph - N/A   Scattered Clouds
8:53 AM 82.0 °F 88.6 °F 75.0 °F 79% 30.04 in 10.0 mi NE 8.1 mph - N/A   Partly Cloudy
9:53 AM 84.0 °F 91.9 °F 75.0 °F 74% 30.05 in 10.0 mi NE 10.4 mph - N/A   Clear
10:53 AM 84.9 °F 93.3 °F 75.0 °F 72% 30.06 in 10.0 mi NNE 10.4 mph - N/A   Clear
11:53 AM 87.1 °F 96.3 °F 75.0 °F 67% 30.05 in 10.0 mi Variable 6.9 mph - N/A   Partly Cloudy
12:53 PM 87.1 °F 95.4 °F 73.9 °F 65% 30.04 in 10.0 mi NNE 6.9 mph - N/A   Partly Cloudy
1:53 PM 86.0 °F 93.8 °F 73.9 °F 67% 30.03 in 10.0 mi NNE 6.9 mph - N/A   Scattered Clouds
2:53 PM 82.0 °F 86.7 °F 72.0 °F 71% 30.01 in 10.0 mi SE 13.8 mph - N/A   Scattered Clouds
3:53 PM 84.0 °F 90.2 °F 73.0 °F 69% 29.99 in 10.0 mi Variable 4.6 mph - N/A   Scattered Clouds
4:53 PM 84.0 °F 91.9 °F 75.0 °F 74% 29.97 in 10.0 mi ESE 6.9 mph - N/A   Mostly Cloudy
5:53 PM 82.9 °F 89.4 °F 73.9 °F 74% 29.97 in 10.0 mi SE 3.5 mph - N/A   Mostly Cloudy
6:53 PM 82.9 °F 90.2 °F 75.0 °F 77% 29.98 in 10.0 mi ESE 3.5 mph - N/A   Mostly Cloudy
7:53 PM 82.0 °F 87.9 °F 73.9 °F 76% 29.98 in 10.0 mi Calm Calm - N/A   Clear
8:53 PM 82.0 °F 87.9 °F 73.9 °F 76% 30.00 in 10.0 mi Calm Calm - N/A   Clear
9:53 PM 82.0 °F 88.6 °F 75.0 °F 79% 30.01 in 10.0 mi Calm Calm - N/A   Clear
10:53 PM 81.0 °F 86.7 °F 75.0 °F 82% 30.01 in 10.0 mi Calm Calm - N/A   Mostly Cloudy
11:03 PM 80.6 °F 86.2 °F 75.2 °F 84% 30.02 in 10.0 mi Calm Calm - N/A   Mostly Cloudy
11:53 PM 81.0 °F 86.2 °F 73.9 °F 79% 30.01 in 10.0 mi ENE 3.5 mph - N/A   Clear